Location: C�mpuri de-Sus
(45.9500°N, 22.5500°E)
Time: 04:42:54
(UTC+00:00)

ATLAS 5 CENTAUR R/B - Pass Details

Date: 24 October 2021
Orbit: 497 x 1159 km, 63.4° (Epoch: 25 November)

Event Time Altitude Azimuth Distance (km) Brightness Sun altitude
Rises 16:05:44 0° 233° (SW) 2,599 6.0 -7.2°
Reaches altitude 10° 16:07:51 10° 239° (WSW) 1,751 5.2 -7.5°
Maximum altitude 16:11:36 48° 315° (NW) 735 2.3 -8.2°
Drops below altitude 10° 16:15:53 10° 31° (NNE) 1,993 3.8 -8.9°
Enters shadow 16:17:56 - 36° (NE) 2,807 4.5 -9.3°
